TimeCDT,TemperatureF,Dew PointF,Humidity,Sea Level PressureIn,VisibilityMPH,Wind Direction,Wind SpeedMPH,Gust SpeedMPH,PrecipitationIn,Events,Conditions,WindDirDegrees,DateUTC
12:15 AM,68.0,66.2,94,29.97,10.0,ESE,8.1,-,N/A,,Overcast,120,2013-06-16 05:15:00
12:35 AM,68.0,66.2,94,29.98,10.0,SE,3.5,-,N/A,,Overcast,130,2013-06-16 05:35:00
12:55 AM,68.0,66.2,94,29.97,10.0,ESE,4.6,-,N/A,Rain,Light Rain,110,2013-06-16 05:55:00
1:15 AM,66.2,66.2,100,29.97,10.0,SE,3.5,-,N/A,,Overcast,140,2013-06-16 06:15:00
1:35 AM,68.0,66.2,94,29.98,10.0,SSE,5.8,-,N/A,,Overcast,150,2013-06-16 06:35:00
1:55 AM,68.0,66.2,94,29.98,10.0,SSW,3.5,-,N/A,,Overcast,200,2013-06-16 06:55:00
2:15 AM,68.0,66.2,94,30.00,10.0,NNW,6.9,-,N/A,,Overcast,330,2013-06-16 07:15:00
2:35 AM,66.2,66.2,100,30.01,10.0,North,4.6,-,N/A,,Overcast,350,2013-06-16 07:35:00
2:55 AM,66.2,66.2,100,30.01,10.0,NE,4.6,-,N/A,,Overcast,50,2013-06-16 07:55:00
3:15 AM,66.2,66.2,100,30.01,10.0,Calm,Calm,-,N/A,,Mostly Cloudy,0,2013-06-16 08:15:00
3:35 AM,66.2,66.2,100,30.00,7.0,East,3.5,-,N/A,,Overcast,100,2013-06-16 08:35:00
3:55 AM,66.2,66.2,100,30.01,7.0,Calm,Calm,-,N/A,,Mostly Cloudy,0,2013-06-16 08:55:00
4:15 AM,66.2,66.2,100,30.01,10.0,West,4.6,-,N/A,,Mostly Cloudy,280,2013-06-16 09:15:00
4:35 AM,66.2,66.2,100,30.00,10.0,East,5.8,-,N/A,,Overcast,80,2013-06-16 09:35:00
4:55 AM,66.2,66.2,100,30.00,10.0,Calm,Calm,-,N/A,,Scattered Clouds,0,2013-06-16 09:55:00
5:15 AM,66.2,66.2,100,30.00,10.0,SSE,4.6,-,N/A,Thunderstorm,Scattered Clouds,150,2013-06-16 10:15:00
5:35 AM,66.2,66.2,100,30.01,10.0,South,4.6,-,N/A,,Mostly Cloudy,180,2013-06-16 10:35:00
5:55 AM,68.0,66.2,94,30.02,10.0,Calm,Calm,-,N/A,Thunderstorm,Thunderstorm,0,2013-06-16 10:55:00
6:15 AM,68.0,66.2,94,30.01,10.0,Calm,Calm,-,N/A,Rain-Thunderstorm,Light Thunderstorms and Rain,0,2013-06-16 11:15:00
6:35 AM,68.0,66.2,94,30.01,10.0,SSE,3.5,-,N/A,Thunderstorm,Scattered Clouds,150,2013-06-16 11:35:00
6:55 AM,68.0,66.2,94,30.01,1.5,South,9.2,-,0.16,Rain-Thunderstorm,Heavy Thunderstorms and Rain,170,2013-06-16 11:55:00
7:15 AM,68.0,68.0,100,30.00,10.0,SE,6.9,-,0.02,Rain-Thunderstorm,Light Thunderstorms and Rain,140,2013-06-16 12:15:00
7:35 AM,68.0,68.0,100,30.01,10.0,SE,4.6,-,0.02,,Mostly Cloudy,140,2013-06-16 12:35:00
7:55 AM,68.0,68.0,100,30.00,10.0,SE,4.6,-,0.02,Thunderstorm,Scattered Clouds,130,2013-06-16 12:55:00
8:15 AM,69.8,68.0,94,30.01,10.0,Calm,Calm,-,N/A,,Scattered Clouds,0,2013-06-16 13:15:00
8:35 AM,71.6,69.8,94,30.01,10.0,South,5.8,-,N/A,Thunderstorm,Mostly Cloudy,170,2013-06-16 13:35:00
8:55 AM,71.6,69.8,94,30.01,10.0,South,5.8,-,N/A,Thunderstorm,Scattered Clouds,180,2013-06-16 13:55:00
9:15 AM,73.4,69.8,88,30.01,10.0,South,9.2,-,N/A,,Scattered Clouds,190,2013-06-16 14:15:00
9:35 AM,73.4,69.8,88,30.00,10.0,South,8.1,-,N/A,Thunderstorm,Clear,190,2013-06-16 14:35:00
9:55 AM,75.2,71.6,89,30.00,10.0,South,9.2,-,N/A,Thunderstorm,Scattered Clouds,190,2013-06-16 14:55:00
10:15 AM,75.2,69.8,83,30.01,10.0,SSW,9.2,-,N/A,,Overcast,200,2013-06-16 15:15:00
10:35 AM,75.2,69.8,83,30.01,10.0,South,9.2,-,N/A,,Overcast,190,2013-06-16 15:35:00
10:55 AM,77.0,71.6,83,30.00,10.0,South,10.4,-,N/A,,Overcast,170,2013-06-16 15:55:00
11:15 AM,77.0,71.6,83,30.01,10.0,South,9.2,-,N/A,Thunderstorm,Mostly Cloudy,180,2013-06-16 16:15:00
11:35 AM,78.8,71.6,78,30.00,10.0,SSW,11.5,-,N/A,Thunderstorm,Mostly Cloudy,210,2013-06-16 16:35:00
11:55 AM,78.8,69.8,74,29.99,10.0,SW,11.5,-,N/A,Thunderstorm,Scattered Clouds,220,2013-06-16 16:55:00
12:15 PM,80.6,71.6,74,29.99,10.0,SW,12.7,18.4,N/A,,Scattered Clouds,220,2013-06-16 17:15:00
12:35 PM,80.6,71.6,74,29.99,10.0,SSW,9.2,-,N/A,,Mostly Cloudy,210,2013-06-16 17:35:00
12:55 PM,80.6,71.6,74,29.99,10.0,SSW,8.1,-,N/A,,Mostly Cloudy,210,2013-06-16 17:55:00
1:15 PM,80.6,71.6,74,29.99,10.0,SW,6.9,-,N/A,,Mostly Cloudy,220,2013-06-16 18:15:00
1:35 PM,82.4,71.6,70,29.98,10.0,SSW,6.9,-,N/A,,Mostly Cloudy,200,2013-06-16 18:35:00
1:55 PM,82.4,71.6,70,29.97,10.0,South,8.1,-,N/A,,Mostly Cloudy,180,2013-06-16 18:55:00
2:15 PM,82.4,71.6,70,29.97,10.0,SSW,5.8,-,N/A,,Mostly Cloudy,210,2013-06-16 19:15:00
2:35 PM,82.4,71.6,70,29.97,10.0,SSW,3.5,-,N/A,,Overcast,210,2013-06-16 19:35:00
2:55 PM,82.4,71.6,70,29.97,10.0,SSW,4.6,-,N/A,,Overcast,210,2013-06-16 19:55:00
3:15 PM,82.4,71.6,70,29.96,10.0,SSW,4.6,-,N/A,,Mostly Cloudy,210,2013-06-16 20:15:00
3:35 PM,80.6,73.4,79,29.96,7.0,West,9.2,-,0.05,Rain,Heavy Rain,270,2013-06-16 20:35:00
3:55 PM,78.8,75.2,89,29.96,5.0,North,3.5,-,0.23,,Mostly Cloudy,10,2013-06-16 20:55:00
4:15 PM,80.6,75.2,84,29.95,10.0,Calm,Calm,-,N/A,Rain,Light Rain,0,2013-06-16 21:15:00
4:35 PM,82.4,77.0,84,29.95,10.0,Calm,Calm,-,N/A,,Clear,0,2013-06-16 21:35:00
4:55 PM,82.4,75.2,79,29.95,5.0,Calm,Calm,-,N/A,Rain,Rain,0,2013-06-16 21:55:00
5:15 PM,80.6,77.0,89,29.94,10.0,North,3.5,-,N/A,,Overcast,360,2013-06-16 22:15:00
5:35 PM,80.6,77.0,89,29.95,10.0,NNW,4.6,-,N/A,,Overcast,330,2013-06-16 22:35:00
5:55 PM,80.6,77.0,89,29.94,10.0,NNW,5.8,-,N/A,,Mostly Cloudy,340,2013-06-16 22:55:00
6:15 PM,82.4,77.0,84,29.94,10.0,North,3.5,-,N/A,,Mostly Cloudy,10,2013-06-16 23:15:00
6:35 PM,82.4,75.2,79,29.93,10.0,Calm,Calm,-,N/A,,Scattered Clouds,0,2013-06-16 23:35:00
6:55 PM,82.4,73.4,74,29.92,10.0,North,3.5,-,N/A,,Clear,360,2013-06-16 23:55:00
7:15 PM,80.6,75.2,84,29.92,10.0,Calm,Calm,-,N/A,,Clear,0,2013-06-17 00:15:00
7:35 PM,80.6,75.2,84,29.93,10.0,Calm,Calm,-,N/A,,Clear,0,2013-06-17 00:35:00
7:55 PM,80.6,75.2,84,29.94,10.0,Calm,Calm,-,N/A,,Clear,0,2013-06-17 00:55:00
8:15 PM,78.8,73.4,83,29.94,10.0,ESE,5.8,-,N/A,Thunderstorm,Mostly Cloudy,110,2013-06-17 01:15:00
8:35 PM,77.0,71.6,83,29.93,10.0,East,6.9,-,N/A,Thunderstorm,Overcast,100,2013-06-17 01:35:00
8:55 PM,75.2,68.0,78,29.95,10.0,ESE,11.5,-,N/A,,Overcast,120,2013-06-17 01:55:00
9:15 PM,73.4,68.0,83,29.94,10.0,ESE,9.2,-,N/A,Thunderstorm,Thunderstorm,110,2013-06-17 02:15:00
9:35 PM,71.6,68.0,88,29.95,7.0,SSE,4.6,-,0.04,Rain-Thunderstorm,Heavy Thunderstorms and Rain,150,2013-06-17 02:35:00
9:55 PM,69.8,69.8,100,30.00,3.0,SW,13.8,19.6,0.29,Rain-Thunderstorm,Heavy Thunderstorms and Rain,230,2013-06-17 02:55:00
10:15 PM,68.0,64.4,88,29.99,4.0,South,6.9,24.2,0.15,Rain-Thunderstorm,Rain,190,2013-06-17 03:15:00
10:35 PM,68.0,66.2,94,30.01,10.0,East,4.6,-,0.16,Rain-Thunderstorm,Light Thunderstorms and Rain,90,2013-06-17 03:35:00
10:55 PM,68.0,66.2,94,30.02,10.0,East,5.8,-,0.16,Rain-Thunderstorm,Light Thunderstorms and Rain,90,2013-06-17 03:55:00
11:15 PM,68.0,66.2,94,30.02,10.0,NE,3.5,-,N/A,Thunderstorm,Mostly Cloudy,40,2013-06-17 04:15:00
11:35 PM,68.0,68.0,100,30.00,10.0,SE,4.6,-,N/A,,Mostly Cloudy,130,2013-06-17 04:35:00
11:55 PM,68.0,68.0,100,29.99,10.0,SE,4.6,-,N/A,Thunderstorm,Mostly Cloudy,130,2013-06-17 04:55:00